Location: Vancouver
(49.2500°N, 123.1333°W)
Time: 09:43:31
(UTC-07:00)

Daily predictions for brighter satellites

Satellite Brightness Start Highest point End
(mag) Time Altitude Azimuth Time Altitude Azimuth Time Altitude Azimuth
Cosmos 990 Rocket 4.2 21:39:39 10° S 21:44:40 51° ESE 21:49:45 10° NNE
NOSS 3-2 (C) 3.8 21:40:27 10° S 21:46:10 45° ESE 21:52:26 10° NE
NOAA 11 4.3 21:41:18 10° SSE 21:46:46 82° ENE 21:52:18 10° NNW
Helios 1A 3.9 21:42:58 10° S 21:47:02 50° W 21:51:09 10° NNW
Cosmos 2346 Rocket 4.5 21:43:11 10° S 21:49:10 69° E 21:55:12 10° NNE
Cosmos 1340 4.2 21:46:08 10° NNE 21:49:14 23° ENE 21:52:18 10° ESE
Cosmos 1606 3.6 21:46:13 10° N 21:49:40 32° ENE 21:53:05 10° SE
Cosmos 1943 Rocket 3.6 21:48:25 10° SE 21:52:03 18° E 21:55:40 10° ENE
H-2A R/B 2.7 21:47:15 10° SE 21:52:23 45° ENE 21:57:28 10° N
MetOp-A 4.2 21:47:27 10° SSE 21:52:47 80° ENE 21:58:10 10° NNW
Cosmos 1703 Rocket 3.6 21:49:38 10° N 21:54:07 75° E 21:58:31 10° SSE
Cosmos 1782 3.3 21:52:58 10° N 21:56:51 44° ENE 22:00:41 10° SSE
Shenzhou-11 Module 3.8 21:54:46 10° WSW 21:57:05 20° SSW 21:59:22 10° SE
Okean 1-7 3.3 21:53:41 10° N 21:58:03 57° ENE 22:02:23 10° SSE
Meteor 1-29 3.1 21:54:34 10° NNE 21:58:05 82° WNW 22:01:35 10° SSW
Cosmos 2369 Rocket 2.9 21:53:16 10° SSE 21:58:18 34° ESE 22:03:21 10° NE
Cosmos 2298 Rocket 4.2 22:04:35 10° SSW 22:09:53 83° WNW 22:15:14 10° NNE
Cosmos 2150 Rocket 4.1 22:05:22 10° SSW 22:10:45 90° ESE 22:16:06 10° NNE
Cosmos 2221 Rocket 3.6 22:06:39 10° N 22:11:06 79° E 22:15:32 10° SSE
CENTAUR R/B 3.4 22:09:54 10° SSE 22:14:55 27° ESE 22:20:29 10° ENE
Cosmos 1937 Rocket 3.6 22:10:36 10° SSW 22:15:44 80° WNW 22:20:56 10° NNE
Cosmos 1869 Rocket 3.5 22:13:17 10° S 22:17:34 68° E 22:21:56 10° NNE
Meteor 2-3 Rocket 4.0 22:12:57 10° SSW 22:18:41 77° WNW 22:24:24 10° N
COSMOS 2455 3.0 22:17:53 10° S 22:23:40 52° ESE 22:29:30 10° NE
Landsat 7 4.1 22:20:52 13° SE 22:24:59 56° ENE 22:29:39 10° N
ATLAS 5 CENTAUR R/B 2.5 22:25:02 10° NW 22:30:49 70° NE 22:36:20 14° SE
SPOT 5 3.4 22:30:40 10° S 22:36:00 67° WSW 22:41:20 10° NNW
GEOS 3 Rocket 3.8 22:32:32 15° SSE 22:36:51 70° SW 22:42:07 10° NW
Gbstr 26 Del rocket 3.5 22:34:17 10° W 22:39:04 63° N 22:43:04 10° ENE
Cosmos 158 Rocket 3.8 22:34:26 10° NNW 22:39:25 89° ENE 22:43:12 17° SSE
Terra 2.1 22:36:29 16° SE 22:40:05 55° ENE 22:44:46 10° N
Tiangong 2 3.0 22:38:12 10° WSW 22:40:22 17° SSW 22:41:06 16° S
Cosmos 1048 Rocket 4.0 22:35:27 10° NNW 22:40:51 89° ENE 22:45:01 17° SSE
ATLAS 3B R/B 4.1 22:37:38 10° WSW 22:44:34 43° NNW 22:51:14 10° NE
CARTOSAT-1 3.7 22:42:31 18° SSE 22:45:34 61° ENE 22:49:52 10° N
Cosmos 1674 Rocket 4.1 22:42:17 10° N 22:46:29 44° ENE 22:49:08 20° SE
ARGOS 4.0 22:44:44 10° S 22:49:53 46° W 22:55:03 10° NNW
SPOT 1/Viking Rocket 3.9 22:45:29 12° S 22:50:12 65° WSW 22:55:25 10° NNW
Cosmos 2251 Rocket 4.5 22:45:39 10° N 22:50:30 36° ENE 22:54:13 16° ESE
Cosmos 1825 2.2 22:47:24 11° S 22:51:03 84° W 22:54:52 10° N
Nadezhda 4 Rocket 4.2 22:46:21 15° SSE 22:51:27 54° E 22:57:26 10° NNE
Cosmos 2084 4.2 22:50:32 10° WNW 22:54:04 37° SW 22:56:22 19° S
Lacrosse 5 rocket 1.8 22:55:14 20° S 22:56:57 30° SE 23:00:13 10° ENE
Aureole 3 3.9 22:54:22 10° SSW 22:57:19 39° WNW 23:00:09 10° N
Cosmos 1812 4.5 22:54:57 10° NNE 22:57:58 21° ENE 22:59:43 16° ESE
Cosmos 2227 Rocket 4.2 22:56:02 10° N 23:00:12 20° NE 23:04:20 10° E
Cosmos 2219 4.1 22:55:40 10° NNW 23:01:06 41° NE 23:05:21 16° ESE
Spot 4 4.4 22:58:34 20° SE 23:01:36 47° ENE 23:06:14 10° N
PSLV R/B 4.0 23:01:29 26° ESE 23:02:16 31° ENE 23:04:48 10° N
H-2A R/B 2.1 23:00:49 24° SE 23:03:09 59° ENE 23:07:12 10° N
Cosmos 1408 3.4 23:02:52 10° SSW 23:06:29 51° WNW 23:10:09 10° N
Cosmos 1269 Rocket 4.3 23:01:57 10° NNW 23:07:11 63° WSW 23:10:52 19° S
Cosmos 405 Rocket 4.2 23:12:35 10° NNE 23:15:43 24° ENE 23:17:05 20° ESE
Lacrosse 4 Rocket 1.6 23:11:35 10° NW 23:16:07 72° WSW 23:18:27 27° SSE
CZ-2C R/B 4.2 23:14:40 10° NE 23:18:06 18° E 23:19:38 16° ESE
CZ-2C R/B 4.3 23:15:45 16° ESE 23:18:49 29° ENE 23:23:03 10° N
NOSS 3-2 (A) 4.5 23:12:51 10° WSW 23:18:54 52° NW 23:25:39 10° NE
Cosmos 2263 4.3 23:15:00 10° SSW 23:20:47 85° WNW 23:26:34 10° NNE
Cosmos 1867 3.8 23:17:31 10° NW 23:23:00 68° NE 23:26:26 23° SE
Cosmos 1908 Rocket 4.1 23:21:26 28° SE 23:23:18 44° E 23:27:33 10° NNE
Cosmos 1125 Rocket 3.7 23:19:07 10° SSW 23:24:22 74° WNW 23:29:37 10° NNE
Cosmos 1340 4.2 23:21:36 10° NNW 23:24:58 31° W 23:27:28 15° SSW
Meteor 1-27 Rocket 4.4 23:22:03 10° NNW 23:27:41 52° W 23:31:58 17° SSW
deb Chang Zheng 4 3.7 23:26:37 10° NNE 23:31:02 60° ESE 23:33:03 30° S
H-2A R/B 3.6 23:27:10 10° SSW 23:31:57 31° W 23:36:41 10° NNW
Cosmos 372 Rocket 4.1 23:26:54 10° SSW 23:32:02 75° WNW 23:37:10 10° NNE
ATLAS CENTAUR R/B 3.6 23:35:09 10° E 23:35:09 10° E 23:35:12 10° E
Cosmos 1943 Rocket 2.2 23:29:29 10° SSW 23:35:06 82° WNW 23:40:42 10° NNE
Cosmos 2344 3.6 23:28:57 10° SSW 23:36:31 69° SE 23:45:17 10° NE
NOSS 3-2 (C) 4.5 23:31:00 10° WSW 23:37:02 51° NW 23:43:48 10° NE
Sich 1 Rocket 3.7 23:37:00 33° SSE 23:38:50 59° E 23:43:11 10° NNE
Cosmos 1346 2.6 23:38:06 10° NNW 23:40:48 78° W 23:40:58 73° SW
Okean 3 3.4 23:37:57 10° NNW 23:42:09 81° W 23:43:52 35° S
Cosmos 2369 Rocket 3.2 23:36:43 10° SW 23:42:10 47° NW 23:47:42 10° NNE
SL-19 R/B 4.4 23:36:20 10° NNE 23:42:16 87° ESE 23:46:51 19° SSW
Mayak 1.1 23:42:15 10° ENE 23:43:16 11° E 23:43:45 11° E
ARGOS Delta rocket 3.7 23:41:58 10° NNE 23:46:35 64° E 23:48:22 35° SSE
Cosmos 1441 Rocket 4.2 23:43:10 10° N 23:46:47 35° ENE 23:47:55 28° ESE
Cosmos 1782 Rocket 3.9 23:48:44 36° SE 23:50:05 49° E 23:54:21 10° NNE
Cosmos 1437 3.3 23:47:42 10° NNW 23:50:49 48° W 23:51:30 40° SW
ISS -2.1 23:53:29 22° E 23:53:29 22° E 23:54:49 10° ENE
Cosmos 1633 4.1 23:51:44 22° E 23:51:52 22° E 23:54:42 10° NE
Cosmos 1733 Rocket 4.0 23:49:07 16° SW 23:52:19 44° WNW 23:56:29 10° N
DNEPR-1 R/B 3.8 23:48:31 10° SW 23:53:30 75° NW 23:57:53 10° NE
